| time (UTC) | temp C | wind direction | speed KPH | gust KPH | rain 1hr cm | rain 24hr cm | rain mn cm | humidity % | barometer mb |
| 20260509191554 | 20 | 220 | 3.2 | 14.5 | 0.00 | 0.00 | 0.00 | 66 | 1011.3 |
| 20260509190053 | 21 | 209 | 1.6 | 12.9 | 0.00 | 0.00 | 0.00 | 65 | 1011.2 |
| 20260509184550 | 21 | 0 | 0.0 | 19.3 | 0.00 | 0.00 | 0.00 | 64 | 1011.2 |
| 20260509183124 | 21 | 0 | 1.6 | 17.7 | 0.00 | 0.00 | 0.00 | 64 | 1011.2 |
| 20260509181609 | 20 | 215 | 6.4 | 19.3 | 0.00 | 0.00 | 0.00 | 65 | 1011.6 |
| 20260509180054 | 20 | 218 | 1.6 | 14.5 | 0.00 | 0.00 | 0.00 | 66 | 1011.8 |
| 20260509174547 | 20 | 163 | 1.6 | 8.0 | 0.00 | 0.00 | 0.00 | 65 | 1011.6 |
| 20260509173058 | 21 | 0 | 3.2 | 17.7 | 0.00 | 0.00 | 0.00 | 65 | 1011.6 |
| 20260509171558 | 21 | 223 | 6.4 | 19.3 | 0.00 | 0.00 | 0.00 | 62 | 1011.8 |
| 20260509170056 | 21 | 246 | 3.2 | 17.7 | 0.00 | 0.00 | 0.00 | 62 | 1011.9 |
| 20260509164548 | 20 | 150 | 4.8 | 19.3 | 0.00 | 0.00 | 0.00 | 67 | 1012.1 |
| 20260509163046 | 19 | 193 | 3.2 | 14.5 | 0.00 | 0.00 | 0.00 | 71 | 1012.6 |
| 20260509161544 | 19 | 0 | 1.6 | 16.1 | 0.00 | 0.00 | 0.00 | 71 | 1012.7 |
| 20260509160044 | 20 | 185 | 3.2 | 16.1 | 0.00 | 0.00 | 0.00 | 70 | 1012.8 |
| 20260509154554 | 18 | 221 | 1.6 | 9.7 | 0.00 | 0.00 | 0.00 | 75 | 1012.8 |
| 20260509153046 | 18 | 117 | 3.2 | 11.3 | 0.00 | 0.00 | 0.00 | 77 | 1012.8 |
| 20260509151550 | 17 | 209 | 0.0 | 6.4 | 0.00 | 0.00 | 0.00 | 77 | 1012.9 |
| 20260509150048 | 17 | 221 | 1.6 | 9.7 | 0.00 | 0.00 | 0.00 | 76 | 1012.8 |
| 20260509144543 | 17 | 180 | 1.6 | 9.7 | 0.00 | 0.00 | 0.00 | 76 | 1012.8 |
| 20260509143052 | 17 | 0 | 1.6 | 12.9 | 0.00 | 0.00 | 0.00 | 76 | 1012.9 |
| 20260509141554 | 17 | 135 | 3.2 | 14.5 | 0.00 | 0.00 | 0.00 | 74 | 1013.0 |
| 20260509140059 | 17 | 229 | 3.2 | 14.5 | 0.00 | 0.00 | 0.00 | 74 | 1013.3 |
| 20260509134544 | 16 | 174 | 1.6 | 11.3 | 0.00 | 0.00 | 0.00 | 74 | 1013.3 |
| 20260509133047 | 16 | 211 | 0.0 | 8.0 | 0.00 | 0.00 | 0.00 | 75 | 1013.7 |
| 20260509131540 | 16 | 0 | 1.6 | 11.3 | 0.00 | 0.00 | 0.00 | 73 | 1014.1 |
| 20260509130051 | 16 | 0 | 1.6 | 16.1 | 0.00 | 0.00 | 0.00 | 73 | 1014.3 |
| 20260509124546 | 15 | 0 | 0.0 | 6.4 | 0.00 | 0.00 | 0.00 | 74 | 1014.2 |
| 20260509123053 | 15 | 115 | 0.0 | 6.4 | 0.00 | 0.00 | 0.00 | 76 | 1014.0 |
| 20260509121545 | 13 | 0 | 0.0 | 8.0 | 0.00 | 0.00 | 0.00 | 80 | 1013.9 |
| 20260509120051 | 13 | 163 | 1.6 | 4.8 | 0.00 | 0.00 | 0.00 | 82 | 1014.0 |
| 20260509114548 | 12 | 0 | 0.0 | 6.4 | 0.00 | 0.00 | 0.00 | 86 | 1013.7 |
| 20260509113050 | 11 | 0 | 0.0 | 1.6 | 0.00 | 0.00 | 0.00 | 87 | 1013.7 |
| 20260509111551 | 11 | 0 | 0.0 | 1.6 | 0.00 | 0.00 | 0.00 | 90 | 1013.7 |
| 20260509110051 | 10 | 0 | 0.0 | 1.6 | 0.00 | 0.00 | 0.00 | 89 | 1013.7 |
| 20260509104554 | 10 | 0 | 0.0 | 0.0 | 0.00 | 0.00 | 0.00 | 87 | 1013.3 |
| 20260509103047 | 10 | 0 | 0.0 | 0.0 | 0.00 | 0.00 | 0.00 | 86 | 1013.1 |
| 20260509101555 | 10 | 0 | 0.0 | 0.0 | 0.00 | 0.00 | 0.00 | 85 | 1012.9 |
| 20260509100051 | 10 | 0 | 0.0 | 0.0 | 0.00 | 0.00 | 0.00 | 84 | 1012.9 |
| 20260509094543 | 10 | 0 | 0.0 | 1.6 | 0.00 | 0.00 | 0.00 | 86 | 1012.9 |
| 20260509093055 | 10 | 0 | 0.0 | 1.6 | 0.00 | 0.00 | 0.00 | 83 | 1012.9 |
| 20260509091548 | 10 | 0 | 0.0 | 1.6 | 0.00 | 0.00 | 0.00 | 81 | 1013.0 |
| 20260509090051 | 11 | 0 | 0.0 | 1.6 | 0.00 | 0.00 | 0.00 | 79 | 1013.2 |
| 20260509084554 | 11 | 0 | 0.0 | 1.6 | 0.00 | 0.00 | 0.00 | 77 | 1013.4 |
| 20260509083051 | 11 | 0 | 0.0 | 1.6 | 0.00 | 0.00 | 0.00 | 76 | 1013.2 |
| 20260509081546 | 12 | 0 | 0.0 | 1.6 | 0.00 | 0.00 | 0.00 | 73 | 1013.4 |
| 20260509080056 | 12 | 0 | 0.0 | 1.6 | 0.00 | 0.00 | 0.00 | 72 | 1013.4 |
| 20260509074544 | 12 | 0 | 0.0 | 1.6 | 0.00 | 0.00 | 0.00 | 70 | 1013.5 |
| 20260509073051 | 12 | 0 | 0.0 | 6.4 | 0.00 | 0.00 | 0.00 | 70 | 1013.6 |
| 20260509071545 | 12 | 0 | 0.0 | 3.2 | 0.00 | 0.00 | 0.00 | 68 | 1013.7 |
| 20260509070049 | 13 | 0 | 0.0 | 1.6 | 0.00 | 0.00 | 0.00 | 66 | 1013.8 |
| 20260509064547 | 14 | 0 | 0.0 | 3.2 | 0.00 | 0.00 | 0.00 | 63 | 1013.9 |
| 20260509063055 | 14 | 0 | 0.0 | 4.8 | 0.00 | 0.00 | 0.00 | 61 | 1013.9 |
| 20260509061558 | 14 | 0 | 0.0 | 6.4 | 0.00 | 0.00 | 0.00 | 61 | 1014.4 |
| 20260509060054 | 14 | 0 | 0.0 | 4.8 | 0.00 | 0.00 | 0.00 | 61 | 1014.5 |
| 20260509054558 | 14 | 0 | 0.0 | 3.2 | 0.00 | 0.03 | 0.00 | 61 | 1014.7 |
| 20260509053101 | 14 | 0 | 0.0 | 3.2 | 0.00 | 0.03 | 0.00 | 59 | 1014.9 |
| 20260509051557 | 15 | 0 | 0.0 | 1.6 | 0.00 | 0.03 | 0.00 | 59 | 1015.3 |
| 20260509050050 | 15 | 0 | 0.0 | 3.2 | 0.00 | 0.03 | 0.00 | 59 | 1015.4 |
| 20260509044548 | 15 | 0 | 0.0 | 8.0 | 0.00 | 0.03 | 0.00 | 55 | 1015.5 |
| 20260509043046 | 15 | 0 | 1.6 | 8.0 | 0.00 | 0.03 | 0.00 | 54 | 1015.4 |
| 20260509041546 | 15 | 0 | 1.6 | 8.0 | 0.00 | 0.03 | 0.00 | 53 | 1015.4 |
| 20260509040052 | 14 | 0 | 0.0 | 1.6 | 0.00 | 0.03 | 0.00 | 55 | 1015.3 |
| 20260509034546 | 14 | 0 | 0.0 | 1.6 | 0.00 | 0.03 | 0.03 | 56 | 1015.4 |
| 20260509033059 | 14 | 0 | 0.0 | 1.6 | 0.00 | 0.03 | 0.03 | 57 | 1015.4 |
| 20260509031552 | 14 | 0 | 0.0 | 1.6 | 0.00 | 0.03 | 0.03 | 58 | 1015.4 |
| 20260509030041 | 15 | 0 | 0.0 | 0.0 | 0.00 | 0.03 | 0.03 | 59 | 1015.6 |
| 20260509024544 | 15 | 0 | 0.0 | 1.6 | 0.00 | 0.03 | 0.03 | 56 | 1015.7 |
| 20260509023047 | 15 | 0 | 0.0 | 1.6 | 0.00 | 0.03 | 0.03 | 54 | 1015.8 |
| 20260509021547 | 15 | 0 | 0.0 | 0.0 | 0.00 | 0.03 | 0.03 | 54 | 1015.8 |
| 20260509020046 | 15 | 0 | 0.0 | 1.6 | 0.00 | 0.03 | 0.03 | 55 | 1015.9 |
| 20260509014548 | 15 | 0 | 0.0 | 1.6 | 0.00 | 0.03 | 0.03 | 55 | 1015.8 |
| 20260509013053 | 15 | 0 | 0.0 | 0.0 | 0.00 | 0.03 | 0.03 | 52 | 1015.7 |
| 20260509011549 | 16 | 0 | 0.0 | 0.0 | 0.00 | 0.03 | 0.03 | 53 | 1015.5 |
| 20260509010050 | 16 | 0 | 0.0 | 1.6 | 0.00 | 0.03 | 0.03 | 48 | 1015.5 |
| 20260509004540 | 16 | 0 | 0.0 | 1.6 | 0.00 | 0.03 | 0.03 | 47 | 1015.5 |
| 20260509003046 | 17 | 0 | 0.0 | 1.6 | 0.00 | 0.03 | 0.03 | 45 | 1015.5 |
| 20260509001545 | 17 | 0 | 0.0 | 1.6 | 0.00 | 0.03 | 0.03 | 43 | 1014.8 |
| 20260509000049 | 18 | 0 | 0.0 | 1.6 | 0.00 | 0.03 | 0.03 | 43 | 1015.0 |
| 20260508234543 | 18 | 0 | 0.0 | 1.6 | 0.00 | 0.03 | 0.03 | 41 | 1015.1 |
| 20260508233101 | 18 | 0 | 0.0 | 3.2 | 0.00 | 0.03 | 0.03 | 38 | 1015.2 |
| 20260508231552 | 18 | 0 | 0.0 | 8.0 | 0.00 | 0.03 | 0.03 | 37 | 1015.3 |
| 20260508230058 | 18 | 0 | 1.6 | 8.0 | 0.00 | 0.03 | 0.03 | 36 | 1015.0 |
| 20260508224605 | 19 | 0 | 0.0 | 8.0 | 0.00 | 0.03 | 0.03 | 36 | 1015.0 |
| 20260508223047 | 19 | 271 | 0.0 | 3.2 | 0.00 | 0.03 | 0.03 | 37 | 1015.0 |
| 20260508221549 | 19 | 244 | 1.6 | 8.0 | 0.00 | 0.03 | 0.03 | 35 | 1014.9 |
| 20260508220055 | 20 | 0 | 0.0 | 17.7 | 0.00 | 0.03 | 0.03 | 37 | 1014.6 |
| 20260508214551 | 20 | 265 | 1.6 | 8.0 | 0.00 | 0.03 | 0.03 | 35 | 1014.8 |
| 20260508213049 | 21 | 294 | 1.6 | 12.9 | 0.00 | 0.03 | 0.03 | 32 | 1015.0 |
| 20260508211554 | 20 | 147 | 3.2 | 8.0 | 0.00 | 0.03 | 0.03 | 31 | 1014.7 |
| 20260508210050 | 20 | 221 | 0.0 | 12.9 | 0.00 | 0.03 | 0.03 | 35 | 1014.9 |
| 20260508204551 | 20 | 0 | 1.6 | 12.9 | 0.00 | 0.33 | 0.03 | 33 | 1015.1 |
| 20260508203055 | 20 | 0 | 3.2 | 16.1 | 0.00 | 0.33 | 0.03 | 33 | 1015.6 |
| 20260508201549 | 20 | 186 | 4.8 | 14.5 | 0.00 | 0.33 | 0.03 | 33 | 1015.7 |
| 20260508200103 | 20 | 173 | 3.2 | 16.1 | 0.00 | 0.33 | 0.03 | 33 | 1015.7 |
| 20260508194539 | 21 | 333 | 3.2 | 11.3 | 0.00 | 0.46 | 0.03 | 33 | 1015.7 |
| 20260508193048 | 20 | 0 | 3.2 | 11.3 | 0.00 | 0.46 | 0.03 | 31 | 1016.0 |